GFSFLT1_250_rhum_045.txt.gz
RH
100 99 100 100 100 100 99 91 81 92 100 100 100 100 100 100 100 100 99 100 100 98 98 99 99 98 73 75 69 53 29 28
100 100 100 100 100 100 100 100 100 100 100 100 100 100 100 100 98 98 95 100 98 100 90 82 72 81 84 78 54 30 30 30
100 100 100 100 100 100 100 100 100 100 100 100 100 100 100 100 100 100 100 97 95 87 89 90 82 78 63 39 31 30 28 27
100 100 95 97 100 100 99 85 100 100 95 100 98 83 66 69 75 76 64 75 76 65 56 52 49 44 36 31 30 28 26 27
100 100 100 100 100 100 100 100 100 100 98 96 98 94 88 96 97 81 65 50 39 33 45 51 61 42 32 30 29 27 26 26
99 80 75 64 65 81 90 88 97 99 82 72 68 68 70 62 50 41 36 32 33 34 33 33 34 35 33 30 32 36 40 43
100 100 87 75 70 64 63 61 63 61 55 68 90 68 60 43 35 35 36 36 35 39 38 36 34 34 37 43 46 50 53 53
86 80 86 89 87 70 80 78 67 77 83 82 76 61 46 39 39 39 38 41 40 39 39 42 45 47 50 50 52 51 51 53
66 61 54 52 47 75 94 96 100 100 100 100 95 69 50 40 48 42 38 41 46 46 46 46 46 43 46 52 51 48 48 48
49 47 21 21 48 99 100 100 100 100 86 86 56 52 50 57 42 44 47 48 47 44 42 47 50 59 58 56 56 56 54 51
24 24 32 35 39 76 64 78 90 89 62 50 49 48 44 44 44 48 49 46 51 63 71 63 57 56 60 62 56 53 60 70
41 41 37 40 44 50 51 44 40 47 44 44 44 41 38 42 50 51 61 67 72 63 59 60 66 66 70 63 60 69 76 72
44 41 54 63 64 55 48 46 56 67 59 50 39 39 48 52 54 60 67 71 64 66 71 71 74 76 69 70 83 83 71 63
41 59 76 62 56 52 59 69 73 65 48 45 56 57 55 59 61 64 62 60 64 72 70 71 78 78 81 88 80 66 60 63
46 62 58 76 61 62 74 80 82 86 88 84 71 59 62 60 60 56 68 71 78 76 79 89 86 85 83 73 68 58 52 46
81 74 80 92 80 81 85 91 91 95 80 59 52 53 58 56 58 67 74 81 76 86 93 85 77 77 68 62 54 58 46 33
64 66 64 60 69 91 94 86 82 66 58 50 51 59 58 56 67 80 83 77 87 94 79 76 74 66 63 58 60 52 38 29
63 67 70 81 83 78 76 68 66 64 53 54 61 64 63 69 78 82 75 82 90 82 86 82 81 84 78 66 48 39 34 25
71 74 76 75 75 68 63 65 63 55 58 63 68 70 78 82 83 76 79 92 88 79 80 87 92 77 62 58 45 30 22 15

GFSFLT1_250_rhum_048.txt.gz
RH
95 84 92 94 91 72 78 93 99 100 100 100 100 100 100 100 100 100 100 100 100 100 100 97 91 99 93 89 77 66 65 59
100 100 96 88 95 77 64 76 100 100 100 100 100 99 100 100 100 100 100 100 100 98 91 99 93 90 84 69 59 51 47 50
91 99 100 100 100 100 100 84 75 73 86 91 91 92 98 100 100 100 100 99 100 100 94 90 92 76 62 43 35 35 38 38
100 100 100 100 100 100 100 100 100 100 100 98 98 100 100 100 100 97 87 94 95 87 78 55 48 42 34 35 38 42 40 38
100 100 100 100 100 100 100 100 98 100 100 100 83 95 100 99 97 83 84 81 73 55 42 34 34 36 38 42 43 43 40 37
90 85 86 94 100 100 99 100 100 100 100 100 100 100 92 76 79 67 62 50 38 31 37 38 40 41 43 45 42 42 46 40
100 98 100 100 100 99 98 83 90 95 89 80 86 77 65 59 58 61 44 37 42 44 46 46 42 46 46 45 45 45 44 46
100 94 92 81 78 68 69 68 70 73 60 61 71 66 90 95 63 47 50 53 47 50 46 46 47 42 42 48 55 59 55 61
73 71 88 83 75 70 65 58 51 54 60 79 81 75 97 99 72 61 55 59 54 46 45 44 46 50 63 70 70 64 65 63
73 64 61 65 74 71 54 42 67 94 100 100 100 100 100 92 80 82 67 51 49 41 49 62 63 73 79 78 66 59 61 61
80 75 76 52 47 46 54 84 100 100 88 87 85 97 100 86 65 55 57 47 45 52 59 66 69 65 66 64 60 67 73 76
90 52 46 46 42 38 42 58 72 71 78 98 100 96 82 58 61 58 51 52 54 57 60 62 59 63 69 62 62 68 72 75
56 46 43 40 38 40 49 62 66 76 99 100 100 68 55 85 74 61 61 52 55 67 70 62 63 65 60 60 70 76 77 74
36 40 39 39 39 40 60 68 76 100 100 85 62 65 84 78 74 63 52 57 64 73 72 76 76 69 73 75 83 82 85 85
41 46 39 37 52 68 79 90 94 91 69 69 73 78 81 81 65 56 64 75 77 82 82 76 79 75 74 81 83 96 91 75
40 36 35 73 75 81 85 87 82 74 78 71 83 91 82 68 64 62 72 78 83 80 78 80 75 78 88 100 97 89 73 74
28 29 34 70 72 72 79 75 73 79 90 98 96 88 75 77 66 60 67 79 84 81 83 78 77 84 90 87 79 77 78 70
35 36 62 70 68 72 74 84 97 100 100 100 90 81 74 66 56 59 69 78 82 83 84 84 98 95 89 87 83 84 72 56
54 75 85 76 76 83 91 96 91 95 86 72 66 60 52 56 60 68 76 82 83 80 76 88 95 97 89 92 88 70 62 62

GFSFLT1_250_rhum_051.txt.gz
RH
100 100 95 98 86 86 98 100 100 100 100 100 100 100 100 100 100 100 100 100 100 100 100 100 100 100 100 92 96 95 82 66
100 78 91 96 89 79 73 69 96 100 100 100 100 100 100 100 100 100 100 100 90 100 100 100 100 94 87 73 76 71 46 37
98 100 98 100 100 100 92 90 85 72 67 82 90 99 100 100 100 100 98 100 100 100 98 88 97 92 82 68 52 38 39 49
100 100 100 100 100 100 100 78 64 77 98 99 89 84 89 90 97 94 100 98 90 99 94 83 79 62 53 45 40 42 50 46
100 100 100 100 100 92 83 96 100 96 92 92 98 96 98 100 88 83 89 100 100 91 87 77 64 54 45 39 42 46 42 45
82 98 100 100 97 100 86 100 100 100 100 89 100 99 90 99 100 94 82 80 70 66 67 65 58 43 42 39 41 43 44 43
100 100 93 99 100 100 100 100 100 100 95 96 83 75 78 76 64 71 75 77 67 66 62 61 56 49 42 41 42 43 40 39
88 99 100 100 100 96 99 100 98 91 88 84 71 64 67 71 84 100 80 70 55 57 53 64 60 59 51 45 43 43 50 57
92 91 94 95 81 82 84 81 73 78 79 78 71 61 70 88 100 100 99 85 61 60 65 83 60 46 40 46 52 65 72 71
94 83 84 83 85 80 78 78 75 69 59 61 75 96 100 100 88 92 96 71 50 60 85 69 54 54 51 55 65 75 67 64
72 87 100 95 80 73 57 60 48 52 73 77 100 93 99 99 100 100 96 67 79 93 90 76 64 55 55 61 64 62 63 65
95 91 83 78 77 67 54 51 52 61 70 72 100 100 100 100 100 100 96 99 100 91 96 75 59 55 66 74 80 76 73 72
85 77 78 77 75 64 53 46 50 72 83 100 100 100 100 100 100 100 100 80 82 81 79 72 73 72 71 80 79 79 78 67
75 82 76 64 78 56 48 52 64 85 100 100 100 100 100 100 100 99 77 77 84 88 77 79 72 62 64 74 81 75 66 66
58 63 52 62 64 54 48 63 91 100 100 100 100 98 92 79 71 71 64 77 88 79 81 70 75 71 74 81 78 73 76 95
34 51 65 57 51 43 48 85 86 96 100 98 85 74 71 73 59 68 85 90 93 92 75 80 80 80 82 75 76 85 90 82
44 39 38 35 33 34 42 75 90 94 86 71 70 72 65 72 90 97 99 97 96 75 78 77 84 81 74 70 66 75 85 85
34 30 27 27 30 38 43 65 78 71 66 66 70 78 86 97 100 100 100 90 69 80 84 87 78 74 76 79 84 89 87 83
51 44 40 38 42 41 53 64 65 63 69 83 87 89 96 100 100 97 80 67 81 84 82 76 78 83 79 82 85 87 85 88

GFSFLT1_250_rhum_054.txt.gz
RH
100 100 99 80 85 100 100 100 100 100 100 100 100 100 100 100 100 100 100 100 99 100 100 100 93 98 100 99 94 100 96 74
100 100 100 99 83 80 97 92 100 100 100 100 100 100 100 100 100 100 100 100 100 100 100 100 100 99 100 100 87 95 85 74
100 100 77 100 100 100 89 79 87 93 100 100 100 100 100 100 100 100 100 96 93 100 99 98 100 98 97 87 81 73 70 62
100 78 96 100 100 100 100 100 94 85 77 80 87 91 91 91 90 87 82 84 81 93 96 100 99 86 80 82 69 60 62 54
100 100 89 97 100 100 96 70 72 100 100 94 83 71 71 80 93 100 100 100 100 100 99 91 85 72 70 65 60 53 56 54
100 100 100 100 100 100 100 83 67 70 65 85 94 90 93 94 92 92 96 91 86 78 68 68 69 68 68 57 59 57 51 57
79 76 70 78 80 76 77 72 79 82 89 100 99 89 81 85 84 76 75 84 83 70 73 70 65 62 66 64 54 66 58 52
100 100 98 96 86 92 97 100 94 87 79 80 81 74 72 68 70 64 68 78 89 83 69 72 81 70 56 68 70 67 63 63
98 99 100 100 100 100 100 100 100 97 88 78 76 92 97 89 86 78 77 100 100 100 96 78 60 56 58 63 63 67 66 79
98 98 100 99 99 98 98 91 82 84 83 85 90 90 100 100 90 100 100 99 100 100 82 77 70 80 73 65 73 74 68 63
71 66 69 73 66 75 81 81 82 81 59 82 82 87 100 100 100 100 95 100 100 100 100 100 99 78 94 87 73 65 75 74
86 78 76 71 68 82 77 81 77 69 45 51 59 62 84 98 89 100 100 100 100 100 100 100 98 100 98 79 75 72 75 75
77 74 79 74 64 68 81 75 64 73 56 50 50 57 65 82 100 100 100 100 100 100 100 100 100 92 74 77 85 84 76 79
93 88 78 79 80 87 87 75 79 62 49 49 53 62 74 98 100 100 100 100 100 100 100 89 81 64 70 78 80 78 79 79
77 81 87 96 98 94 89 86 80 62 52 51 59 73 94 100 100 100 100 100 96 92 81 73 65 84 86 77 78 85 92 93
88 81 100 100 100 94 74 80 78 71 53 58 79 100 99 99 100 100 100 99 81 73 65 72 89 84 80 87 89 99 100 91
87 76 74 83 91 94 90 66 72 63 46 47 82 98 100 100 100 100 80 68 65 68 88 90 90 92 96 95 97 100 92 85
63 66 54 41 35 34 35 38 41 41 49 52 60 83 94 96 88 70 63 70 83 95 97 92 99 100 100 98 89 87 88 95
52 48 46 50 56 51 43 38 41 49 53 58 69 81 82 69 63 71 82 90 99 96 97 100 100 99 93 82 82 88 93 88

GFSFLT1_250_rhum_057.txt.gz
RH
71 76 95 95 100 88 78 91 90 74 92 100 100 100 100 100 100 100 100 100 100 100 100 98 98 99 97 100 98 85 85 100
100 92 91 84 100 82 100 100 100 100 100 100 100 100 100 100 100 100 96 100 100 100 98 100 100 100 100 100 100 100 100 100
100 96 100 94 79 78 98 100 100 92 100 100 100 100 100 100 100 100 100 100 100 100 100 100 100 100 100 100 100 93 100 95
100 100 100 98 100 100 100 100 94 93 94 100 100 100 100 100 100 100 100 100 100 100 100 100 96 100 100 100 98 93 80 67
100 100 100 80 73 100 100 100 100 100 100 98 97 82 94 98 100 100 99 98 89 100 99 92 100 100 87 82 68 56 60 54
100 93 100 100 89 77 100 91 100 90 67 64 61 86 82 66 63 61 60 59 68 85 97 89 80 66 62 64 74 68 64 53
86 83 96 100 100 100 91 100 86 68 73 54 49 55 76 94 100 100 100 100 85 77 67 64 66 91 81 73 85 70 65 60
100 97 73 72 71 70 72 70 71 63 68 96 95 84 77 76 77 75 62 62 58 62 69 78 100 100 100 100 100 85 60 56
72 77 100 97 91 83 86 86 78 84 86 88 86 90 74 68 64 62 59 53 60 73 83 98 99 100 100 100 83 52 48 52
68 70 84 91 98 100 100 100 100 100 100 94 94 98 71 71 77 72 64 76 74 72 94 100 98 89 99 74 74 71 72 66
86 92 100 99 99 96 92 90 82 75 76 76 75 74 74 69 81 80 93 100 80 98 100 100 100 92 86 99 100 100 98 94
83 85 84 76 72 77 90 88 76 72 73 68 66 66 73 68 76 96 100 100 100 100 100 98 91 100 100 100 100 100 93 99
78 71 70 72 67 70 75 79 76 81 82 78 67 44 67 70 77 67 71 85 89 91 98 100 100 100 99 100 98 99 94 83
72 73 70 64 69 73 71 73 76 78 74 74 70 72 74 59 47 48 52 58 69 82 100 100 100 100 100 99 98 84 76 71
77 75 66 65 68 62 73 75 74 66 74 68 62 70 68 60 56 53 52 70 88 98 100 100 100 99 91 85 76 72 85 99
84 82 84 90 90 86 94 90 84 81 75 77 78 68 64 54 42 42 46 63 88 93 93 90 86 94 85 77 85 98 98 92
100 92 83 67 74 82 75 87 80 78 91 82 73 56 54 48 53 64 63 64 82 94 94 98 96 87 93 99 100 100 97 94
75 66 69 63 48 38 37 53 59 60 61 68 65 60 64 70 80 92 100 100 100 100 100 100 99 100 100 100 97 92 99 99
51 39 34 37 44 52 58 54 52 56 59 60 68 78 91 96 99 100 100 100 100 100 100 100 100 99 97 95 99 100 98 99

GFSFLT1_250_rhum_063.txt.gz
RH
94 100 69 47 60 49 45 60 96 100 100 100 100 100 98 100 100 100 100 100 100 100 100 100 100 100 100 100 100 100 94 99
77 95 83 72 80 82 72 67 78 90 100 100 100 100 100 100 100 100 100 100 100 100 100 100 100 100 100 100 100 97 92 92
85 90 78 85 81 57 42 48 62 73 87 98 100 100 100 100 100 100 99 98 100 100 100 100 100 100 100 100 100 100 99 100
78 70 55 60 55 48 44 33 33 37 45 73 71 78 83 78 77 87 95 90 95 100 100 100 100 100 100 100 92 94 100 99
98 100 96 66 80 76 54 55 44 36 32 33 37 48 65 65 85 100 99 93 98 97 83 83 75 84 95 99 98 100 100 100
100 95 88 100 100 100 100 78 69 90 78 85 72 73 65 69 84 78 82 99 100 100 100 100 100 100 100 100 100 100 100 100
89 100 100 55 90 100 100 100 100 100 100 100 100 100 100 97 85 97 98 89 86 66 63 82 97 100 100 100 96 88 78 65
72 98 95 100 100 100 91 88 82 97 92 82 92 94 100 99 100 79 73 65 49 54 67 72 80 82 77 66 61 62 69 66
62 66 95 98 82 73 72 73 88 56 61 67 75 74 67 64 63 58 47 59 67 66 80 92 75 66 60 66 64 65 68 87
74 80 81 81 62 76 55 59 58 60 59 58 53 46 48 51 47 56 62 92 99 78 100 100 100 97 76 65 55 70 70 73
72 64 62 59 61 63 62 60 57 50 49 57 54 49 45 51 50 64 73 100 99 100 100 100 100 86 84 92 94 82 94 97
48 63 72 59 54 56 54 40 54 73 65 58 53 80 100 90 98 100 100 100 100 100 100 100 100 95 89 71 74 84 89 88
50 56 67 84 78 69 43 87 100 96 97 100 100 98 96 77 100 100 100 100 96 100 100 100 85 70 61 62 77 81 60 48
36 41 41 54 58 61 68 100 99 100 99 100 100 100 100 100 82 100 100 80 90 84 81 69 59 55 57 50 50 55 52 61
38 34 31 33 51 56 60 100 100 100 100 100 90 86 98 98 87 79 88 93 76 73 62 54 47 42 41 42 49 61 67 72
39 41 33 30 27 42 40 65 98 100 93 100 93 70 73 75 74 68 57 52 57 56 43 39 34 35 48 54 55 56 62 60
36 49 52 39 31 27 22 30 45 57 60 48 45 52 49 45 43 49 48 44 42 38 39 40 49 57 56 57 56 57 60 69
33 37 50 58 76 58 55 49 47 43 42 38 41 41 39 38 40 42 44 46 46 43 46 48 55 56 61 63 68 78 77 73
43 35 38 60 68 56 51 46 41 40 39 38 36 38 39 39 40 42 45 48 53 58 65 72 78 83 81 77 71 67 72 71

GFSFLT1_250_rhum_066.txt.gz
RH
62 48 57 45 41 32 33 37 51 100 100 100 100 100 100 100 98 100 100 100 100 100 100 100 100 100 100 100 100 96 96 100
61 40 66 87 80 76 69 58 65 64 100 100 100 100 100 100 100 100 100 100 100 80 86 100 100 100 98 94 86 100 100 100
70 37 62 84 88 99 100 99 90 81 100 100 100 100 100 100 100 100 100 100 100 100 100 100 100 100 100 100 100 94 100 100
70 52 48 49 68 69 61 52 47 41 57 81 96 98 100 100 100 100 100 100 100 100 100 100 99 97 99 96 100 100 100 100
60 65 86 65 58 58 57 60 47 53 56 52 68 84 89 95 100 100 100 100 98 98 96 97 93 88 94 98 92 98 100 99
72 78 95 81 49 80 89 100 93 65 83 90 77 71 84 85 88 82 82 83 80 74 70 75 85 100 100 88 89 95 88 100
67 90 96 95 67 63 88 100 100 100 100 94 86 87 95 97 94 91 83 72 80 91 98 99 86 86 78 74 82 86 98 95
58 78 92 100 98 56 76 99 100 100 93 84 97 87 95 97 95 94 97 96 89 88 81 70 64 60 64 59 65 76 79 69
86 100 80 82 99 94 67 65 66 88 65 100 98 95 91 76 64 70 65 63 54 53 54 63 72 62 47 46 53 53 52 48
54 52 61 84 97 94 93 70 70 52 50 52 64 58 43 44 44 45 46 46 49 67 82 71 56 65 64 52 42 56 65 85
58 66 62 70 72 70 76 76 70 68 64 61 56 53 53 68 62 69 79 96 91 86 100 95 87 86 75 62 54 77 96 97
42 45 59 54 51 56 51 51 50 74 93 98 100 100 100 99 85 86 100 100 100 100 100 100 100 100 100 100 98 100 100 100
43 40 40 46 47 50 51 61 78 100 99 69 65 100 100 100 78 100 100 96 100 100 100 100 100 100 100 100 100 100 100 100
30 36 40 39 45 56 56 83 100 100 100 100 98 100 100 100 100 99 100 100 100 100 100 100 100 100 100 100 100 100 98 75
36 30 36 37 34 38 49 86 92 100 100 99 100 100 100 100 100 100 100 93 100 100 100 100 100 100 100 95 79 73 68 50
37 34 30 32 36 33 28 66 87 100 100 89 100 100 98 100 100 100 100 100 100 87 82 99 94 84 83 76 47 50 53 52
42 35 35 30 30 33 32 41 73 81 100 100 100 100 100 100 100 100 100 100 100 90 78 79 60 51 50 44 43 49 60 64
50 42 37 37 33 32 29 44 48 70 92 95 93 100 100 100 100 98 79 59 55 49 42 42 41 41 47 57 62 60 59 67
61 54 43 39 42 41 34 31 29 34 43 53 61 78 73 63 47 37 38 44 51 53 56 58 60 56 51 53 58 58 62 62

GFSFLT1_250_rhum_069.txt.gz
RH
55 43 31 35 38 50 64 82 63 80 100 100 100 100 96 97 100 97 66 85 100 100 100 100 100 100 100 100 100 100 100 98
72 52 44 45 55 51 54 61 82 75 97 100 100 100 100 100 100 100 100 100 99 100 100 100 100 99 77 86 92 100 99 98
55 55 54 39 51 51 67 72 83 93 100 100 100 100 100 100 100 100 100 100 100 100 100 100 100 97 100 100 100 100 100 100
64 57 58 47 52 68 62 62 74 78 93 100 100 100 100 100 100 100 100 100 100 100 100 100 88 100 100 100 100 100 100 100
80 69 69 60 40 50 67 68 53 50 76 75 85 82 79 86 73 81 82 100 100 100 98 93 89 98 100 100 100 100 100 100
69 65 83 98 78 70 64 66 61 51 40 37 40 45 51 55 74 84 92 100 92 90 95 100 92 100 97 100 96 92 90 93
54 61 78 98 86 76 82 75 62 56 45 52 44 49 75 65 72 82 89 86 88 95 100 100 100 99 96 91 79 72 67 64
56 48 52 70 90 83 59 67 82 90 91 98 100 95 85 80 85 83 71 82 88 93 87 80 76 70 66 76 72 70 63 63
41 62 71 63 71 86 80 64 65 82 100 90 61 58 49 51 63 68 65 60 58 57 60 63 64 95 100 83 63 61 50 52
34 33 57 59 84 77 100 100 96 60 59 62 76 63 52 52 55 58 67 80 76 68 81 90 89 72 56 55 50 30 29 30
32 34 36 44 59 65 91 90 90 95 80 70 72 70 64 65 68 75 99 77 85 70 66 87 82 74 70 49 54 57 55 59
39 32 31 35 50 60 63 76 83 81 77 77 98 100 100 100 100 100 100 96 99 98 100 100 100 100 100 92 99 75 91 98
42 40 30 27 31 60 81 88 85 69 72 99 100 100 100 100 100 100 100 100 90 98 100 100 100 100 100 85 100 100 100 100
48 41 34 31 29 33 58 82 100 100 82 90 86 67 76 100 100 100 100 100 81 100 100 100 100 100 100 100 100 100 100 100
64 45 38 32 31 31 36 53 92 100 95 74 68 46 74 93 100 100 100 100 97 100 100 100 100 100 100 100 100 100 100 100
73 62 44 38 35 32 30 35 45 83 100 100 91 54 57 96 97 100 100 79 75 99 83 100 100 100 100 100 100 100 100 100
84 76 64 47 39 38 34 32 40 36 86 96 100 100 91 72 96 100 100 100 100 100 97 100 100 100 100 100 91 74 57 50
100 97 87 56 45 44 39 38 33 39 41 44 82 100 100 100 100 100 100 100 100 100 100 100 98 96 86 76 58 50 49 52
98 100 100 92 55 59 56 38 39 40 40 66 93 100 100 95 96 92 89 89 93 91 83 79 72 66 54 45 43 41 42 46

GFSFLT1_250_rhum_072.txt.gz
RH
47 66 58 55 49 56 93 100 100 98 100 100 100 97 100 100 100 100 100 100 100 100 100 100 100 94 89 83 98 95 99 91
45 52 54 48 44 44 46 80 99 94 96 94 100 100 100 100 100 100 99 100 100 100 100 97 100 100 100 100 100 100 100 100
43 51 61 57 53 41 34 38 75 91 81 80 87 99 100 88 99 100 100 100 100 95 100 100 100 100 100 99 100 100 100 100
48 57 61 67 46 43 59 70 65 91 92 86 80 75 83 100 100 100 100 100 100 100 100 100 100 100 100 100 100 100 96 98
46 63 86 93 64 46 52 74 75 70 88 92 87 70 78 90 93 100 100 100 100 100 100 97 96 97 90 100 100 100 91 100
38 50 76 100 100 96 63 62 64 69 61 71 73 84 100 100 96 98 100 100 100 100 100 98 92 100 99 96 100 100 100 94
29 45 57 67 100 100 96 76 68 66 66 64 66 84 91 89 94 96 98 100 99 99 100 96 98 100 100 100 100 100 100 100
31 35 53 60 81 93 99 100 88 92 74 62 63 63 74 82 82 81 81 80 89 86 78 84 88 90 92 89 81 82 77 71
33 32 34 43 57 59 76 71 83 98 100 96 86 91 95 87 86 83 77 83 88 78 71 66 58 57 55 58 59 82 73 60
36 34 34 37 50 59 63 61 58 71 69 95 100 100 92 67 78 71 61 54 50 50 50 47 61 72 72 71 80 66 49 40
50 32 37 35 35 47 63 69 68 79 64 65 78 67 63 87 64 60 73 70 63 61 67 82 98 90 83 71 57 45 64 86
82 35 33 37 34 32 42 63 74 92 94 67 75 85 80 71 74 69 74 98 100 100 100 100 100 71 56 95 85 60 66 84
90 73 28 34 35 36 33 40 62 81 85 97 91 81 78 70 70 75 84 97 91 77 100 100 79 85 90 94 100 100 100 100
81 98 42 29 39 36 35 36 39 60 72 74 76 77 66 65 88 90 92 87 75 65 71 86 86 70 58 87 100 100 100 100
66 100 62 41 41 44 35 35 38 46 70 84 62 49 58 67 83 91 88 92 71 62 54 42 44 41 53 63 74 81 71 88
72 100 98 54 40 56 45 42 33 36 44 66 79 75 55 58 56 56 64 71 62 64 48 57 62 74 64 56 63 62 61 84
68 92 100 93 49 50 65 47 44 36 35 39 57 90 93 66 51 63 64 52 60 100 100 100 100 100 100 100 100 100 100 100
85 95 100 100 84 73 75 65 58 52 49 35 36 40 61 90 94 91 90 92 98 100 98 98 99 96 93 82 83 77 78 73
67 87 100 100 100 100 96 98 78 71 64 60 47 43 57 70 75 81 81 74 56 46 45 44 43 44 46 48 49 50 47 46

GFSFLT1_250_rhum_075.txt.gz
RH
21 24 35 52 55 51 61 94 89 100 100 100 100 100 100 100 100 100 90 98 100 100 100 99 100 92 87 85 83 85 100 100
23 25 45 51 51 58 51 58 88 88 100 100 100 100 100 100 100 100 100 100 72 84 100 100 74 80 54 54 83 100 100 93
27 25 35 46 49 48 46 39 53 77 86 99 100 100 100 100 100 100 79 100 99 100 100 100 100 99 100 100 100 94 100 94
34 26 29 43 46 51 50 41 53 53 69 85 92 100 100 100 100 100 100 100 100 92 98 100 100 100 100 100 100 100 100 100
44 26 28 42 63 59 43 45 60 65 61 76 87 90 93 100 100 100 100 100 100 97 100 100 100 100 100 100 100 100 100 97
62 32 28 41 73 82 56 61 71 80 78 85 84 76 92 96 95 99 96 100 95 96 100 100 100 100 100 100 100 100 100 100
86 46 32 30 51 77 81 83 79 76 71 71 71 74 98 100 100 100 100 98 93 98 100 100 100 100 100 100 100 100 100 100
64 70 38 30 38 58 73 94 89 97 100 91 80 70 75 82 97 100 100 100 100 100 100 100 100 100 100 100 100 100 100 100
48 83 53 33 32 35 57 65 74 82 100 100 100 100 100 98 100 100 100 100 100 100 100 100 100 100 100 100 100 88 83 90
61 44 96 54 33 31 32 39 57 85 81 90 100 100 100 100 100 100 100 100 100 100 100 100 100 97 88 78 71 68 68 59
51 53 65 89 41 31 32 31 38 55 59 70 88 92 100 100 100 99 92 84 83 82 85 87 81 77 70 71 70 76 80 84
55 58 56 94 71 41 36 32 33 41 57 64 94 78 64 90 100 100 81 78 78 56 55 57 50 55 82 94 99 97 69 46
56 62 58 88 86 49 40 34 34 35 56 64 66 85 89 75 60 62 60 60 71 68 73 82 76 76 68 94 86 60 47 34
74 66 64 66 72 74 50 43 35 35 37 50 63 65 78 87 94 86 78 69 72 92 100 96 83 68 64 81 74 60 43 41
95 91 67 58 66 99 56 49 46 41 37 38 39 54 69 89 78 78 88 99 100 100 100 99 77 60 56 49 42 37 48 63
100 100 80 64 76 95 91 58 41 53 46 44 36 35 42 51 57 56 63 71 90 83 82 64 68 67 49 42 41 60 99 100
100 100 86 79 97 100 100 100 58 53 59 48 50 45 38 43 54 60 54 74 64 60 54 53 53 75 100 100 100 70 55 48
100 100 100 68 87 88 100 90 98 93 85 82 63 46 49 53 44 48 61 80 73 76 77 79 76 59 44 41 42 45 48 57
100 100 100 100 73 78 90 100 100 88 94 96 98 83 64 56 57 57 61 54 53 49 45 42 43 43 46 52 58 61 64 61

GFSFLT1_250_rhum_078.txt.gz
RH
38 28 22 27 37 41 57 60 63 98 88 100 100 100 99 93 100 92 96 100 100 89 100 100 100 64 87 100 100 100 100 99
49 37 24 24 42 42 54 69 53 71 96 91 100 100 100 100 72 88 100 92 97 100 100 100 88 69 100 98 100 100 99 89
64 56 30 23 32 46 50 56 55 50 92 90 99 100 100 100 100 64 92 100 100 67 75 85 100 99 74 88 59 57 67 50
54 72 46 25 30 45 59 65 55 49 59 96 92 100 100 100 100 100 96 83 100 94 84 84 51 56 70 49 59 98 98 85
39 85 74 32 25 43 53 63 72 67 46 81 95 94 100 100 100 100 100 100 100 86 100 88 100 100 100 100 100 100 100 100
38 66 88 49 28 31 56 63 80 100 79 73 90 98 90 100 100 100 100 100 100 100 100 100 89 73 100 100 100 97 100 100
40 45 77 69 45 29 36 52 92 76 79 85 77 74 96 100 100 100 100 100 100 100 100 100 100 100 100 100 100 100 100 100
45 36 45 82 66 42 30 37 54 94 66 68 75 79 73 68 70 91 100 100 100 100 100 100 100 100 100 100 100 95 100 100
53 40 40 47 89 57 34 30 36 68 69 78 90 78 74 74 72 78 92 96 100 100 94 98 100 100 98 100 100 100 100 100
91 40 41 38 50 93 46 33 30 36 57 80 77 90 100 81 83 88 100 100 100 100 100 100 100 100 100 100 96 88 96 95
100 88 32 45 50 62 94 45 31 29 33 57 84 77 97 100 94 92 98 100 100 100 100 100 100 100 100 100 100 98 98 89
47 86 79 38 47 58 74 83 41 32 29 33 51 65 72 82 100 100 100 100 100 100 99 96 83 76 70 61 62 63 60 65
52 48 92 91 57 50 66 74 74 43 35 31 32 43 56 69 74 73 86 100 100 100 94 73 57 62 64 64 64 61 66 77
65 67 61 100 74 56 49 71 82 64 44 37 31 31 38 58 77 89 90 83 93 96 86 85 76 72 90 90 89 87 82 73
75 70 81 81 73 70 53 66 73 99 66 47 42 40 33 31 38 54 70 93 94 81 78 92 98 100 100 100 100 100 100 89
71 63 87 57 80 100 100 44 76 88 100 77 57 54 48 39 33 31 38 70 86 91 92 98 100 100 100 100 94 96 96 84
100 78 65 85 63 60 100 83 46 86 94 100 100 94 74 68 52 38 37 36 50 68 75 87 100 96 89 82 79 63 58 43
100 66 60 75 97 82 72 100 68 52 95 85 99 98 91 100 94 74 46 40 43 38 45 50 58 58 57 53 45 39 39 43
100 85 72 100 100 100 92 90 68 94 73 94 98 100 100 96 82 94 99 66 47 54 52 53 54 53 51 52 52 55 58 64

GFSFLT1_250_rhum_081.txt.gz
RH
36 32 41 28 22 23 30 30 44 67 98 100 97 100 100 100 100 100 100 100 100 100 100 100 100 100 100 100 100 100 100 96
40 36 46 39 25 24 27 35 39 38 70 100 74 100 100 98 99 100 100 100 100 100 100 100 100 100 100 78 81 100 100 64
38 39 44 42 27 24 33 38 39 39 60 66 100 67 100 100 100 100 100 100 100 100 100 100 100 99 100 100 86 70 70 74
44 42 38 42 33 24 35 50 49 47 52 58 87 90 100 100 100 100 100 100 100 100 100 100 100 93 93 95 98 100 94 74
59 39 41 52 41 29 29 51 63 55 50 49 84 100 100 100 100 100 100 86 91 85 85 100 100 100 96 82 83 51 46 50
69 36 35 45 53 47 30 38 49 52 44 45 68 100 100 100 100 100 100 100 100 95 75 56 51 54 52 39 41 44 59 100
100 36 33 40 47 51 49 30 43 67 59 52 47 100 100 100 100 100 100 100 100 100 100 100 88 84 80 84 98 86 99 96
65 41 46 28 32 55 59 40 29 35 54 54 46 47 92 100 100 100 100 100 100 100 100 100 100 100 100 100 100 100 100 100
31 32 89 75 36 42 55 63 51 32 28 48 49 53 46 54 93 100 100 100 100 100 100 100 100 100 100 100 100 100 100 100
56 31 63 100 73 43 45 66 66 40 30 28 36 50 61 66 64 70 78 80 92 98 99 100 100 100 100 100 100 100 100 100
68 42 48 41 40 70 48 40 70 66 40 31 28 30 46 49 70 74 60 61 63 66 73 86 97 100 100 100 100 100 100 100
100 47 45 62 41 49 68 44 45 67 71 42 35 28 31 44 58 80 97 90 67 70 90 97 97 98 100 100 100 100 100 89
95 39 60 82 44 47 49 60 36 46 72 64 44 38 30 29 39 53 64 100 100 100 100 100 100 100 97 74 74 68 59 54
24 52 69 92 53 54 40 65 52 40 54 85 65 47 42 40 32 30 43 55 71 97 100 100 100 100 100 100 91 71 65 62
32 57 73 100 74 73 47 40 43 78 75 54 91 82 58 50 48 42 30 30 53 71 71 72 91 94 99 94 85 82 86 91
96 86 66 62 80 67 48 43 46 66 100 77 44 79 100 82 60 59 60 47 35 31 41 56 68 75 81 81 87 92 100 100
100 100 71 99 100 97 97 69 54 48 50 100 100 49 64 100 100 100 86 100 91 65 44 33 37 50 70 71 65 72 92 100
100 100 100 93 84 80 79 76 68 52 50 89 87 99 98 77 92 80 66 77 91 98 100 85 52 39 47 56 54 58 50 51
100 100 100 100 100 100 94 69 68 60 65 94 98 100 94 89 98 89 100 100 97 82 74 94 100 98 82 50 43 46 49 51

GFSFLT1_250_rhum_084.txt.gz
RH
72 50 36 31 28 23 20 17 20 23 74 95 100 73 100 100 99 94 100 100 100 100 100 100 86 100 100 100 100 100 100 99
52 45 43 31 31 30 22 17 19 26 39 86 97 100 85 100 100 100 100 100 100 100 99 100 100 77 90 100 100 100 100 100
48 44 49 32 35 33 23 20 23 25 33 68 92 100 83 91 100 100 100 100 100 100 100 93 83 76 81 89 91 98 100 100
27 40 43 30 32 35 26 23 28 29 35 45 78 100 100 86 100 100 100 100 100 100 100 100 100 100 98 99 100 94 100 100
31 26 39 32 31 35 36 25 28 36 39 43 63 83 100 87 100 100 100 100 100 100 100 100 100 100 100 100 100 100 100 100
39 26 82 54 25 29 32 35 27 35 44 44 51 67 89 100 100 100 100 100 100 100 100 100 100 100 100 100 100 100 95 99
42 28 87 22 29 52 35 31 33 30 37 46 47 49 54 100 100 100 100 100 100 100 100 100 100 86 75 77 80 75 84 84
47 39 29 24 53 100 50 39 32 33 28 31 40 44 42 84 100 100 100 100 100 100 100 100 100 99 99 97 99 96 95 81
64 33 54 32 29 97 53 43 40 33 37 30 28 41 39 49 95 100 100 100 100 100 100 100 100 100 100 92 97 100 100 98
99 46 68 47 32 45 28 31 40 39 34 35 33 30 32 43 50 98 100 100 100 100 100 100 100 100 100 100 100 100 100 100
98 73 39 45 35 34 45 35 39 33 41 36 36 36 30 29 48 43 65 95 100 100 100 100 100 100 100 100 100 100 100 100
79 54 42 78 67 35 65 65 41 36 41 38 36 36 37 30 29 38 52 55 54 63 75 89 99 100 100 100 100 100 100 100
62 47 63 73 62 31 42 74 50 44 39 35 41 52 44 38 38 38 31 44 67 80 67 53 64 87 100 100 100 99 100 100
68 60 59 51 32 26 34 76 80 37 40 35 38 84 85 58 46 41 41 34 30 46 70 98 100 79 62 80 98 100 100 100
79 57 53 53 31 26 41 54 39 47 66 44 43 54 100 81 68 56 51 50 45 36 32 34 50 84 98 100 98 91 97 81
90 92 72 72 48 35 38 61 91 100 59 46 43 39 54 98 100 72 99 100 95 53 61 69 43 36 37 42 48 52 59 64
98 100 100 88 51 100 100 100 45 64 82 68 55 52 48 41 91 99 70 82 82 86 74 71 96 82 73 64 54 44 38 50
91 97 83 94 74 95 100 100 67 84 99 100 99 72 61 50 41 74 100 100 81 79 84 100 100 98 100 100 99 88 70 63
88 78 65 58 56 99 88 64 98 85 100 100 98 81 62 51 52 55 100 100 88 80 84 81 94 60 55 82 100 100 100 87